• în Republica Moldova
  • Lista ţărilor
  • Pe 7 zile
  • Temperatura apei
  • Hartă satelitară
  • Meteo pe hartă
  • Widget-uri
  • user-avatar
    Intrare

    Meteo pe oră la Vlorë

    Astăzi, 17 Octombrie, Miercuri

    Timp Temperatura Precipitaţii Vânt Presiune Umiditate
    00:00 +20°C° 0 mm 2 m/s 764 mmHg 66%
    01:00 +19°C° 0 mm 2 m/s 764 mmHg 65%
    02:00 +19°C° 0 mm 2 m/s 764 mmHg 65%
    03:00 +19°C° 0 mm 2 m/s 763 mmHg 65%
    04:00 +19°C° 0 mm 2 m/s 763 mmHg 65%
    05:00 +19°C° 0 mm 2 m/s 763 mmHg 64%
    06:00 +19°C° 0 mm 2 m/s 763 mmHg 63%
    07:00 +20°C° 0 mm 2 m/s 763 mmHg 62%
    08:00 +23°C° 0 mm 1 m/s 763 mmHg 56%
    09:00 +25°C° 0 mm 1 m/s 763 mmHg 50%
    10:00 +27°C° 0 mm 1 m/s 763 mmHg 44%
    11:00 +27°C° 0 mm 1 m/s 763 mmHg 42%
    12:00 +28°C° 0 mm 2 m/s 762 mmHg 40%
    13:00 +28°C° 0 mm 2 m/s 762 mmHg 39%
    14:00 +28°C° 0 mm 2 m/s 762 mmHg 43%
    15:00 +27°C° 0 mm 2 m/s 761 mmHg 47%
    16:00 +26°C° 0 mm 2 m/s 761 mmHg 51%
    17:00 +25°C° 0 mm 1 m/s 761 mmHg 57%
    18:00 +23°C° 0 mm 1 m/s 762 mmHg 63%
    19:00 +22°C° 0 mm 1 m/s 762 mmHg 68%
    20:00 +22°C° 0 mm 1 m/s 762 mmHg 68%
    21:00 +22°C° 0 mm 1 m/s 762 mmHg 67%
    22:00 +21°C° 0 mm 1 m/s 762 mmHg 66%
    23:00 +21°C° 0 mm 1 m/s 762 mmHg 64%

    Mâine, 18 Octombrie, Joi

    Timp Temperatura Precipitaţii Vânt Presiune Umiditate
    00:00 +21°C° 0 mm 1 m/s 762 mmHg 62%
    01:00 +21°C° 0 mm 1 m/s 762 mmHg 60%
    02:00 +20°C° 0 mm 1 m/s 761 mmHg 59%
    03:00 +20°C° 0 mm 1 m/s 761 mmHg 57%
    04:00 +20°C° 0 mm 1 m/s 761 mmHg 56%
    05:00 +20°C° 0 mm 1 m/s 761 mmHg 55%
    06:00 +19°C° 0 mm 2 m/s 761 mmHg 54%
    07:00 +20°C° 0 mm 2 m/s 761 mmHg 53%
    08:00 +23°C° 0 mm 1 m/s 761 mmHg 48%
    09:00 +25°C° 0 mm 1 m/s 761 mmHg 43%
    10:00 +27°C° 0 mm 1 m/s 761 mmHg 38%
    11:00 +27°C° 0 mm 1 m/s 761 mmHg 37%
    12:00 +28°C° 0 mm 2 m/s 761 mmHg 36%
    13:00 +28°C° 0 mm 2 m/s 761 mmHg 34%
    14:00 +28°C° 0 mm 2 m/s 760 mmHg 39%
    15:00 +27°C° 0 mm 2 m/s 760 mmHg 44%
    16:00 +26°C° 0 mm 2 m/s 760 mmHg 48%
    17:00 +25°C° 0 mm 2 m/s 760 mmHg 54%
    18:00 +23°C° 0 mm 2 m/s 761 mmHg 60%
    19:00 +21°C° 0 mm 2 m/s 761 mmHg 66%
    20:00 +21°C° 0 mm 2 m/s 761 mmHg 65%
    21:00 +21°C° 0 mm 1 m/s 761 mmHg 64%
    22:00 +21°C° 0 mm 1 m/s 762 mmHg 63%
    23:00 +21°C° 0 mm 1 m/s 762 mmHg 62%

    Poimâine, 19 Octombrie, Vineri

    Timp Temperatura Precipitaţii Vânt Presiune Umiditate
    00:00 +21°C° 0 mm 1 m/s 762 mmHg 60%
    01:00 +21°C° 0 mm 1 m/s 762 mmHg 59%
    02:00 +21°C° 0 mm 1 m/s 762 mmHg 59%
    03:00 +20°C° 0 mm 1 m/s 761 mmHg 58%
    04:00 +20°C° 0 mm 1 m/s 761 mmHg 58%
    05:00 +20°C° 0 mm 1 m/s 762 mmHg 57%
    06:00 +20°C° 0 mm 2 m/s 762 mmHg 56%
    07:00 +20°C° 0 mm 2 m/s 762 mmHg 55%
    08:00 +23°C° 0 mm 2 m/s 762 mmHg 50%
    09:00 +25°C° 0 mm 1 m/s 762 mmHg 45%
    10:00 +27°C° 0 mm 1 m/s 762 mmHg 40%
    11:00 +28°C° 0 mm 2 m/s 762 mmHg 38%
    12:00 +28°C° 0 mm 2 m/s 762 mmHg 36%
    13:00 +29°C° 0 mm 3 m/s 762 mmHg 34%
    14:00 +28°C° 0 mm 3 m/s 762 mmHg 38%
    15:00 +27°C° 0 mm 3 m/s 762 mmHg 42%
    16:00 +26°C° 0 mm 3 m/s 762 mmHg 46%
    17:00 +25°C° 0 mm 3 m/s 762 mmHg 50%
    18:00 +22°C° 0 mm 4 m/s 762 mmHg 54%
    19:00 +21°C° 0 mm 4 m/s 762 mmHg 58%
    20:00 +21°C° 0 mm 4 m/s 762 mmHg 57%
    21:00 +20°C° 0 mm 4 m/s 763 mmHg 56%
    22:00 +20°C° 0 mm 4 m/s 763 mmHg 55%
    23:00 +20°C° 0 mm 4 m/s 763 mmHg 54%

    20 Octombrie, Sâmbătă

    Timp Temperatura Precipitaţii Vânt Presiune Umiditate
    00:00 +20°C° 0 mm 4 m/s 763 mmHg 53%
    01:00 +20°C° 0 mm 4 m/s 763 mmHg 52%
    02:00 +20°C° 0 mm 4 m/s 763 mmHg 52%
    03:00 +19°C° 0 mm 4 m/s 763 mmHg 52%
    04:00 +19°C° 0 mm 4 m/s 763 mmHg 52%
    05:00 +19°C° 0 mm 4 m/s 763 mmHg 51%
    06:00 +20°C° 0 mm 4 m/s 763 mmHg 51%
    07:00 +20°C° 0 mm 4 m/s 763 mmHg 50%
    08:00 +22°C° 0 mm 4 m/s 763 mmHg 45%
    09:00 +25°C° 0 mm 4 m/s 764 mmHg 41%
    10:00 +27°C° 0 mm 4 m/s 764 mmHg 36%
    11:00 +28°C° 0 mm 4 m/s 763 mmHg 34%
    12:00 +29°C° 0 mm 5 m/s 763 mmHg 33%
    13:00 +29°C° 0 mm 6 m/s 763 mmHg 31%
    14:00 +28°C° 0 mm 6 m/s 763 mmHg 34%
    15:00 +28°C° 0 mm 6 m/s 763 mmHg 38%
    16:00 +27°C° 0 mm 6 m/s 763 mmHg 41%
    17:00 +24°C° 0 mm 6 m/s 763 mmHg 46%
    18:00 +23°C° 0 mm 6 m/s 763 mmHg 50%
    19:00 +21°C° 0 mm 5 m/s 763 mmHg 55%
    20:00 +21°C° 0 mm 5 m/s 764 mmHg 55%
    21:00 +21°C° 0 mm 5 m/s 764 mmHg 55%
    22:00 +20°C° 0 mm 5 m/s 764 mmHg 55%
    23:00 +20°C° 0 mm 5 m/s 764 mmHg 54%

    21 Octombrie, Duminică

    Timp Temperatura Precipitaţii Vânt Presiune Umiditate
    00:00 +20°C° 0 mm 5 m/s 764 mmHg 53%
    01:00 +19°C° 0 mm 4 m/s 764 mmHg 52%
    02:00 +19°C° 0 mm 4 m/s 764 mmHg 51%
    03:00 +19°C° 0 mm 4 m/s 764 mmHg 50%
    04:00 +19°C° 0 mm 4 m/s 764 mmHg 50%
    05:00 +19°C° 0 mm 4 m/s 764 mmHg 50%
    06:00 +19°C° 0 mm 3 m/s 764 mmHg 49%
    07:00 +19°C° 0 mm 3 m/s 764 mmHg 49%
    08:00 +21°C° 0 mm 3 m/s 764 mmHg 46%
    09:00 +24°C° 0 mm 3 m/s 764 mmHg 42%
    10:00 +26°C° 0 mm 2 m/s 764 mmHg 38%
    11:00 +26°C° 0 mm 3 m/s 763 mmHg 38%
    12:00 +27°C° 0 mm 3 m/s 763 mmHg 37%
    13:00 +27°C° 0 mm 4 m/s 763 mmHg 37%
    14:00 +27°C° 0 mm 4 m/s 762 mmHg 39%
    15:00 +26°C° 0 mm 4 m/s 762 mmHg 42%
    16:00 +25°C° 0 mm 4 m/s 762 mmHg 44%
    17:00 +23°C° 0 mm 4 m/s 762 mmHg 48%
    18:00 +22°C° 0 mm 4 m/s 762 mmHg 51%
    19:00 +21°C° 0 mm 4 m/s 762 mmHg 54%
    20:00 +20°C° 0 mm 4 m/s 762 mmHg 54%
    21:00 +20°C° 0 mm 4 m/s 762 mmHg 54%
    22:00 +20°C° 0 mm 4 m/s 762 mmHg 54%
    23:00 +20°C° 0.1 mm 4 m/s 762 mmHg 55%

    22 Octombrie, Luni

    Timp Temperatura Precipitaţii Vânt Presiune Umiditate
    00:00 +19°C° 0.1 mm 3 m/s 762 mmHg 56%
    01:00 +19°C° 0.1 mm 3 m/s 762 mmHg 57%
    02:00 +19°C° 0.3 mm 3 m/s 761 mmHg 61%
    03:00 +18°C° 0.3 mm 2 m/s 761 mmHg 65%
    04:00 +18°C° 0.3 mm 2 m/s 761 mmHg 69%
    05:00 +18°C° 0.4 mm 2 m/s 761 mmHg 70%
    06:00 +18°C° 0.4 mm 3 m/s 761 mmHg 71%
    07:00 +18°C° 0.4 mm 3 m/s 761 mmHg 71%
    08:00 +19°C° 0.3 mm 3 m/s 761 mmHg 69%
    09:00 +19°C° 0.3 mm 3 m/s 761 mmHg 67%
    10:00 +20°C° 0.3 mm 3 m/s 761 mmHg 64%
    11:00 +20°C° 0.2 mm 3 m/s 760 mmHg 64%
    12:00 +20°C° 0.2 mm 3 m/s 760 mmHg 64%
    13:00 +20°C° 0.2 mm 4 m/s 760 mmHg 63%
    14:00 +20°C° 0.2 mm 4 m/s 759 mmHg 67%
    15:00 +19°C° 0.2 mm 4 m/s 759 mmHg 70%
    16:00 +19°C° 0.2 mm 4 m/s 759 mmHg 74%
    17:00 +19°C° 0.1 mm 4 m/s 759 mmHg 76%
    18:00 +18°C° 0.1 mm 4 m/s 759 mmHg 78%
    19:00 +18°C° 0.1 mm 4 m/s 759 mmHg 80%
    20:00 +18°C° 0.1 mm 4 m/s 759 mmHg 81%
    21:00 +18°C° 0.1 mm 3 m/s 759 mmHg 81%
    22:00 +17°C° 0.1 mm 3 m/s 759 mmHg 82%
    23:00 +17°C° 0.2 mm 3 m/s 759 mmHg 82%
    Arată mai mult